Location: Veytaux
(46.4185°N, 6.9320°E)
Time: 08:50:54
(UTC+00:00)

Meteor 2-10 Rocket - Pass Details

Date: 27 May 2022
Orbit: 733 x 885 km, 81.2° (Epoch: 01 July)

Event Time Altitude Azimuth Distance (km) Brightness Sun altitude
Rises 00:06:13 0° 351° (N) 3,460 8.2 -21.8°
Reaches altitude 10° 00:08:45 10° 356° (N) 2,501 7.2 -21.7°
Maximum altitude 00:14:21 58° 75° (ENE) 969 4.1 -21.6°
Enters shadow 00:16:53 31° 141° (SE) 1,415 4.5 -21.5°
